Location: Kalberh�ni
(46.4610°N, 7.2453°E)
Time: 21:43:47
(UTC+00:00)

USA 229 - Pass Details

Date: 30 October 2021
Orbit: 946 x 1266 km, 63.4° (Epoch: 25 November)

Event Time Altitude Azimuth Distance (km) Brightness Sun altitude
Rises 20:21:58 0° 291° (WNW) 3,764 7.4 -41.6°
Reaches altitude 10° 20:25:22 10° 308° (NW) 2,868 6.6 -42.1°
Enters shadow 20:29:54 20° 351° (N) 2,292 5.7 -42.8°
